This demonstration page uses our WeatherBlox Daily Observations layout. Learn more.

Left ArrowRight Arrow

38.88101, -77.10428

Hourly Observations for January 27, 2021

Temp ( °F °C ) Dew Point ( °F °C ) Humidity (%) Winds ( mph kmh ) Pressure ( in mb ) Visibility ( mi km ) Precip ( " mm )
12:52 am 00:52 Cloudy with Mist and Fog 37 2.8 35 1.7 93 93 SW 7 11 29.93 1013 6 10 0.00 0.00
1:48 am 01:48 Cloudy with Mist and Fog 37 3 36 2 93 93 WSW 6 9 29.94 1014 6 10 0.00 0.00
1:52 am 01:52 Cloudy with Mist and Fog 37 2.8 36 2.2 96 96 WSW 6 9 29.94 1014 6 10 0.00 0.00
2:52 am 02:52 Cloudy 38 3.3 36 2.2 93 93 W 6 9 29.96 1015 7 11 0.00 0.00
3:04 am 03:04 Cloudy 37 2.8 36 2.2 96 96 SW 6 9 29.96 1015 8 13 0.00 0.00
3:52 am 03:52 Cloudy with Mist and Fog 37 2.8 36 2.2 96 96 SW 3 6 29.97 1015 6 10 0.00 0.00
4:01 am 04:01 Cloudy 37 2.8 36 2.2 96 96 Calm 29.98 1015 7 11 0.00 0.00
4:37 am 04:37 Cloudy 38 3.3 36 2.2 93 93 Calm 29.99 1016 7 11 0.00 0.00
4:52 am 04:52 Cloudy with Mist and Fog 37 2.8 36 2.2 96 96 Calm 29.99 1016 6 10 0.00 0.00
5:28 am 05:28 Mostly Cloudy with Mist and Fog 37 2.8 35 1.7 93 93 N 6 9 29.99 1016 6 10 0.00 0.00
5:52 am 05:52 Mostly Cloudy 36 2.2 35 1.7 97 97 NNW 6 9 30.00 1016 7 11 0.00 0.00
6:52 am 06:52 Mostly Cloudy with Mist and Fog 38 3.3 36 2.2 93 93 NNW 9 15 30.05 1018 6 10 0.00 0.00
7:52 am 07:52 Cloudy 41 5 34 1.1 76 76 NNW 10 17 30.09 1019 10 16 0.00 0.00
8:52 am 08:52 Mostly Cloudy 41 5 34 1.1 76 76 NNW 7 11 30.10 1019 10 16 0.00 0.00
9:52 am 09:52 Mostly Cloudy 42 5.6 31 -0.6 65 65 NW 9 15 30.13 1020 10 16 0.00 0.00
10:52 am 10:52 Mostly Cloudy 42 5.6 30 -1.1 62 62 NNW 13 20 30.15 1021 10 16 0.00 0.00
11:52 am 11:52 Mostly Cloudy 42 5.6 28 -2.2 58 58 NNW 14 22 30.12 1020 10 16 0.00 0.00
12:52 pm 12:52 Mostly Cloudy 43 6.1 28 -2.2 56 56 NW 15 24 30.09 1019 10 16 0.00 0.00
1:52 pm 13:52 Mostly Cloudy 42 5.6 27 -2.8 55 55 NW 17 28 30.11 1020 10 16 0.00 0.00
2:52 pm 14:52 Mostly Cloudy 42 5.6 27 -2.8 55 55 NNW 8 13 30.10 1019 10 16 0.00 0.00
3:52 pm 15:52 Mostly Cloudy 43 6.1 27 -2.8 53 53 NNW 9 15 30.10 1019 10 16 0.00 0.00
4:52 pm 16:52 Mostly Cloudy 41 5 26 -3.3 55 55 NNW 13 20 30.11 1020 10 16 0.00 0.00
5:52 pm 17:52 Cloudy 40 4.4 25 -3.9 55 55 NNW 12 19 30.13 1020 10 16 0.00 0.00
6:52 pm 18:52 Cloudy 39 3.9 26 -3.3 60 60 N 9 15 30.13 1020 10 16 0.00 0.00
7:52 pm 19:52 Cloudy 39 3.9 25 -3.9 57 57 N 9 15 30.13 1020 10 16 0.00 0.00
8:52 pm 20:52 Cloudy 39 3.9 24 -4.4 55 55 N 13 20 30.15 1021 10 16 0.00 0.00
9:52 pm 21:52 Cloudy 37 2.8 23 -5 57 57 N 16 26 30.15 1021 10 16 0.00 0.00
10:52 pm 22:52 Cloudy 36 2.2 23 -5 59 59 N 16 26 30.13 1020 10 16 0.00 0.00
11:52 pm 23:52 Cloudy 36 2.2 23 -5 59 59 N 10 17 30.13 1020 10 16 0.00 0.00

Powered by AerisWeather